Location: ???? ?????
(30.0052°N, 31.2891°E)
Time: 12:37:44
(UTC+00:00)

Cosmos 1331 Rocket - Pass Details

Date: 01 October 2022
Orbit: 748 x 778 km, 74.0° (Epoch: 08 December)

Event Time Altitude Azimuth Distance (km) Brightness Sun altitude
Rises 03:04:56 0° 217° (SW) 3,181 6.8 -10.2°
Reaches altitude 10° 03:07:30 10° 227° (SW) 2,259 6.0 -9.6°
Maximum altitude 03:12:05 33° 291° (WNW) 1,246 4.6 -8.6°
Drops below altitude 10° 03:16:41 10° 355° (N) 2,269 6.4 -7.6°
Sets 03:19:17 0° 5° (N) 3,198 7.3 -7.1°
